MOLNIYA 1-80

Last updated on Aug. 6, 2020, 5:30 a.m. UTC

1 21118U 91012A   20218.47558068 -.00000737  00000-0  00000-0 0  9990
2 21118  64.4783  50.6537 6868247 285.6089  12.9362  2.05241205217028
UTC
Height (km)
Latitude
Longitude
Inclination
Orbital Period
UTC large
Height (km)
Speed (km/s)
/
Latitude / Longitude
Inclination (degrees)
Orbital Period (minutes)
Azimuth
Elevation
Range (km)
Doppler Factor
iOS Compass Heading
iOS Angle

Next 30 passes for location: Hong Kong

Rise time Rise Azimuth (degrees) Set time Set Azimuth (degrees) Duration Max altitude (degrees)

No matching passes for this satellites